Regional Weather Roundup
Issued by NWS

Home | Current Version | Previous Version | Graphics & Text | Print | Product List | Glossary On
Versions: 1 2 3 4 5 6 7 8 9 10 11 12 13 14 15 16 17 18 19 20 21 22 23 24 25 26 27 28 29 30 31 32 33 34 35 36 37 38 39 40 41 42 43 44 45 46 47 48 49 50
000
ASUS43 KLSX 301457
RWRMO

WEATHER SUMMARY FOR MISSOURI
NATIONAL WEATHER SERVICE SPRINGFIELD MO
1000 AM CDT SAT APR 30 2016

NOTE: "FAIR" INDICATES FEW OR NO CLOUDS BELOW 12,000 FEET WITH NO
       SIGNIFICANT WEATHER AND/OR OBSTRUCTIONS TO VISIBILITY.
       CURRENT SKY AND/OR WEATHER CONDITIONS ARE NOT AVAILABLE FOR
       CHILLICOTHE AND FARMINGTON.

MOZ001>031-035>038-043-044-053-054-301600-
...NORTHERN AND WESTERN MISSOURI...

CITY           SKY/WX    TMP DP  RH WIND       PRES   REMARKS
KANSAS CTY INT CLOUDY    59  58  96 SE12      29.64S
LEE`S SUMMIT   CLOUDY    63  61  93 S9        29.65S
ST JOSEPH      CLOUDY    55  53  93 E15       29.64S
CHILLICOTHE      N/A     55  53  93 E3        29.69F

$$
MOZ066>068-077>081-088>096-101>105-301600-
...SOUTHWEST MISSOURI...

CITY           SKY/WX    TMP DP  RH WIND       PRES   REMARKS
SPRINGFIELD    CLOUDY    67  60  78 SW14      29.71S
JOPLIN         CLOUDY    63  59  87 SW13      29.73R
BRANSON        CLOUDY    66  61  82 CALM      29.74F

$$
MOZ032>034-039>042-045>050-055>058-069>072-301600-
...CENTRAL MISSOURI...

CITY           SKY/WX    TMP DP  RH WIND       PRES   REMARKS
COLUMBIA       NOT AVBL
JEFFERSON CITY CLOUDY    61  60  97 SE8       29.72R
ROLLA          CLOUDY    62  60  93 S12       29.72R
SEDALIA        CLOUDY    64  61  90 SE13      29.69R
WARRENSBURG    CLOUDY    63  59  88 S8        29.66S

$$
MOZ051-052-059>065-301600-
...EAST CENTRAL MISSOURI...

CITY           SKY/WX    TMP DP  RH WIND       PRES   REMARKS
ST LOUIS INTL  LGT RAIN  62  59  90 SE9       29.77F FOG

$$
MOZ072>076-082>087-097>100-106>115-301600-
...SOUTH CENTRAL AND SOUTHEAST MISSOURI...

CITY           SKY/WX    TMP DP  RH WIND       PRES   REMARKS
CAPE GIRARDEAU CLOUDY    63  62  97 SE10G17   29.80S
POPLAR BLUFF   CLOUDY    66  62  87 S6        29.79R
WEST PLAINS    CLOUDY    64  59  83 S7        29.77R

$$



USA.gov is the U.S. government's official web portal to all federal, state and local government web resources and services.